Location: Recife
(8.0585°S, 34.8848°W)
Time: 12:06:41
(UTC-03:00)

Injun/Solrad 3 - Pass Details

Date: 16 April 2026
Orbit: 868 x 988 km, 66.8° (Epoch: 12 May)

Event Time Altitude Azimuth Distance (km) Brightness Sun altitude
Rises 19:18:17 0° 194° (SSW) 3,462 11.0 -30.6°
Reaches altitude 10° 19:20:48 10° 190° (S) 2,517 10.2 -31.2°
Enters shadow 19:20:57 11° 190° (S) 2,466 10.1 -31.2°
Maximum altitude 19:26:31 61° 110° (ESE) 982 - -32.6°
Drops below altitude 10° 19:32:15 10° 31° (NNE) 2,520 - -34.0°
Sets 19:34:46 0° 27° (NNE) 3,465 - -34.6°
